Location: Brno
(49.2000°N, 16.6330°E)
Time: 19:27:10
(UTC+02:00)

CARTOSAT-1 - Visible Passes

Search period start: 29 April 2017 00:00
Search period end: 09 May 2017 00:00
Orbit: 617 x 620 km, 97.9° (Epoch: 27 April)

Date Brightness Start Highest point End Pass type
(mag) Time Alt. Az. Time Alt. Az. Time Alt. Az.
29 Apr 5.9 00:11:33 13° W 00:12:09 13° W 00:14:19 10° WNW visible
29 Apr 5.6 21:14:21 10° E 21:16:48 15° ENE 21:19:14 10° NNE visible
29 Apr 3.6 22:51:18 51° S 22:52:19 77° WSW 22:56:40 10° NNW visible
30 Apr 5.2 21:31:03 14° E 21:33:22 20° ENE 21:36:33 10° NNE visible
30 Apr 4.1 23:08:10 43° SW 23:09:07 52° W 23:13:22 10° NNW visible
01 May 4.8 21:47:55 19° ESE 21:49:59 28° ENE 21:53:41 10° N visible
01 May 4.6 23:25:03 32° SW 23:25:58 36° W 23:29:58 10° NNW visible
02 May 4.3 22:04:48 26° ESE 22:06:39 39° ENE 22:10:41 10° N visible
02 May 5.1 23:41:55 23° WSW 23:42:51 25° W 23:46:27 10° NW visible
03 May 3.8 22:21:40 33° SE 22:23:20 56° ENE 22:27:35 10° N visible
03 May 5.6 23:58:48 16° WSW 23:59:46 18° W 00:02:42 10° NW visible
04 May 5.8 21:03:07 10° ENE 21:04:43 12° NE 21:06:18 10° NE visible
04 May 3.5 22:38:33 40° SSE 22:40:04 81° ENE 22:44:25 10° NNW visible
05 May 6.0 00:15:40 11° WSW 00:16:44 12° W 00:18:29 10° WNW visible
05 May 5.5 21:18:36 10° E 21:21:16 16° ENE 21:23:55 10° NNE visible
05 May 3.7 22:55:25 41° S 22:56:51 69° WSW 23:01:11 10° NNW visible
06 May 5.1 21:35:10 13° ESE 21:37:51 22° ENE 21:41:11 10° NNE visible
06 May 4.2 23:12:18 34° SSW 23:13:39 47° W 23:17:51 10° NNW visible
07 May 4.7 21:52:03 18° ESE 21:54:28 30° ENE 21:58:16 10° N visible
07 May 4.8 23:29:10 27° SW 23:30:30 32° W 23:34:25 10° NNW visible
08 May 4.2 22:08:55 24° SE 22:11:08 42° ENE 22:15:14 10° N visible
08 May 5.3 23:46:03 20° WSW 23:47:23 23° W 23:50:50 10° NW visible
